World > North America > United States > Ohio

Hourly Chatham, OH Regional Weather

Feedback E-mail the Weather

Quick WX

Chatham, OH Weather Maps

°F °C°F °C
Chatham Weather Map
UTC Time: 7/4/2022, 11:58
Your Time:

Chatham, OH Regional Weather

Expires:202207041200;;662948
ASUS41 KCLE 041112
RWRCLE
OHIO REGIONAL WEATHER ROUNDUP
NATIONAL WEATHER SERVICE WILMINGTON, OH
700 AM EDT MON JUL 04 2022

NOTE: "FAIR" INDICATES FEW OR NO CLOUDS BELOW 12,000 FEET WITH NO
SIGNIFICANT WEATHER AND/OR OBSTRUCTIONS TO VISIBILITY.


OHZ009>014-019>023-028>033-038-089-041200-
   NORTHEAST OHIO
  
CITY           SKY/WX    TMP DP  RH WIND       PRES   REMARKS
CLE-HOPKINS    FAIR      67  52  58 S8        30.16R                  
CLE-LAKEFRONT  FAIR      69  53  56 SE13      30.15S                  
CUY CO. ARPT   CLEAR     66  52  59 S9        30.17F                  
LORAIN-ELYRIA  FAIR      65  55  70 S6        30.18S                  
ASHTABULA      FAIR      60  54  80 S6        30.19S                  
AKRON-CANTON   FAIR      66  54  65 S5        30.20R                  
WOOSTER        NOT AVBL                                               
MANSFIELD      FAIR      66  54  65 S7        30.20R                  
YOUNGSTOWN     FAIR      63  52  67 S8        30.20R                  
$$
 

SKY/WX - Weather  TMP - Temperature  DP - Dew Point  RH - Humidity
WIND - Wind Direction/Speed PRES - Barometric Pressure VSB - Visibility
WCI - Wind Chill Index E13G22 Wind - East Wind 13 mph/Gusts of 22 mph

Trending Headlines

Chatham Radar Loop



Chatham Quick Facts


National Two Day Weather Forecast


E-mail the Chatham Weather Forecast

Voice your opinion or tell us about page issues...